Weather History for Poplar Bluff, MO

Change the Weather History Date:

Wednesday, March 27, 2013

  Actual Average Record
Temperature  
Mean Temperature 40 °F -  
Max Temperature 53 °F 60 °F 83 °F (1945)
Min Temperature 27 °F 39 °F 16 °F (1955)
Degree Days  
Heating Degree Days 26    
Moisture  
Dew Point 29 °F    
Average Humidity 62    
Maximum Humidity 85    
Minimum Humidity 42    
Precipitation  
Precipitation 0.00 in - - ()
Sea Level Pressure  
Sea Level Pressure 30.36 in    
Wind  
Wind Speed 3 mph (SE)    
Max Wind Speed 9 mph    
Max Gust Speed -    
Visibility 10 miles    
Events      
Averages and records for this station are not official NWS values.
T = Trace of Precipitation, MM = Missing Value Source: NWS Daily Summary

Daily Weather History Graph

Daily Weather History Graph

Search for Another Location

Airport:

Trip Planner

Search our weather history database for the weather conditions in past years. The results will help you decide how hot, cold, wet, or windy it might be!

Date:

Astronomy

Mar. 27, 2013 Rise Set
Actual Time 6:54 AM CDT 7:19 PM CDT
Civil Twilight 6:28 AM CDT 7:45 PM CDT
Nautical Twilight 5:57 AM CDT 8:15 PM CDT
Astronomical Twilight 5:26 AM CDT 8:47 PM CDT
Moon 8:01 PM CDT (3/27) 6:46 AM CDT (3/27)
Length of Visible Light 13h 17m
Length of Day
12h 25m
Full, 100% of the Moon is Illuminated
Mar 27
Full
Apr 2
Last Quarter
Apr 10
New
Apr 18
First Quarter
Apr 25
Full

Hourly Weather History & Observations

Time (CDT) Temp. Windchill Dew Point Humidity Pressure Visibility Wind Dir Wind Speed Gust Speed Precip Events Conditions
12:53 AM 35.1 °F 32.2 °F 25.0 °F 67% 30.37 in 10.0 mi NE 3.5 mph - N/A   Clear
1:53 AM 32.0 °F 28.7 °F 25.0 °F 75% 30.37 in 10.0 mi North 3.5 mph - N/A   Clear
2:53 AM 30.0 °F - 25.0 °F 82% 30.37 in 10.0 mi Calm Calm - N/A   Clear
3:53 AM 28.9 °F - 25.0 °F 85% 30.37 in 10.0 mi Calm Calm - N/A   Clear
4:53 AM 28.0 °F 24.2 °F 24.1 °F 85% 30.37 in 10.0 mi NNW 3.5 mph - N/A   Clear
5:53 AM 28.0 °F - 23.0 °F 81% 30.39 in 10.0 mi Calm Calm - N/A   Clear
6:53 AM 27.0 °F - 23.0 °F 85% 30.39 in 10.0 mi Calm Calm - N/A   Clear
7:53 AM 30.0 °F - 24.1 °F 79% 30.41 in 10.0 mi Calm Calm - N/A   Clear
8:53 AM 36.0 °F 32.1 °F 26.1 °F 67% 30.42 in 10.0 mi NE 4.6 mph - N/A   Clear
9:53 AM 39.9 °F 36.7 °F 27.0 °F 60% 30.42 in 10.0 mi ESE 4.6 mph - N/A   Clear
10:53 AM 44.1 °F 41.5 °F 28.0 °F 53% 30.42 in 10.0 mi SE 4.6 mph - N/A   Clear
11:53 AM 46.0 °F 43.9 °F 28.0 °F 50% 30.41 in 10.0 mi Variable 4.6 mph - N/A   Clear
12:53 PM 48.0 °F - 26.1 °F 42% 30.40 in 10.0 mi NNE 4.6 mph - N/A   Clear
1:53 PM 50.0 °F - 30.0 °F 46% 30.38 in 10.0 mi SW 6.9 mph - N/A   Clear
2:53 PM 51.1 °F - 30.0 °F 44% 30.36 in 10.0 mi SSE 4.6 mph - N/A   Clear
3:53 PM 52.0 °F - 30.0 °F 43% 30.33 in 10.0 mi SSW 8.1 mph - N/A   Clear
4:53 PM 52.0 °F - 30.9 °F 45% 30.32 in 10.0 mi South 9.2 mph - N/A   Mostly Cloudy
5:53 PM 52.0 °F - 30.0 °F 43% 30.31 in 10.0 mi South 6.9 mph - N/A   Overcast
6:53 PM 51.1 °F - 30.9 °F 46% 30.30 in 10.0 mi South 4.6 mph - N/A   Scattered Clouds
7:53 PM 48.9 °F - 32.0 °F 52% 30.30 in 10.0 mi SE 3.5 mph - N/A   Clear
8:53 PM 48.0 °F - 34.0 °F 58% 30.30 in 10.0 mi Calm Calm - N/A   Overcast
9:53 PM 46.9 °F - 33.1 °F 59% 30.32 in 10.0 mi Calm Calm - N/A   Partly Cloudy
10:53 PM 45.0 °F - 37.0 °F 74% 30.31 in 10.0 mi Calm Calm - N/A   Overcast
11:53 PM 45.0 °F - 37.0 °F 74% 30.32 in 10.0 mi Calm Calm - N/A   Overcast